SPACEBEE-109 (48897 NORAD) Tracking and Keplerian Element Data

This shows tracking and keplerian element data for the satellite.

Feedback or suggestion? Click here.




ElementValue
Catalog48897
NameSPACEBEE-109
Epoch Orbit1679
Epoch Day287.92343327
Epoch Year2021
RAAN55.1205
Inclination97.5281
Eccentricity0.0008944
Argument of Perigee225.1469
Mean Anonmoly134.9035
Mean Motion15.12473649
Decay Rate2.996E-05
L11 48897U 21059U 21287.92343327 .00002996 00000-0 17587-3 0 9993
L22 48897 97.5281 55.1205 0008944 225.1469 134.9035 15.12473649 16792

Live tracking and technical data element details for SPACEBEE-109 (NORAD 48897). SPACEBEE-109 can be tracked NOW for your location showing map with azimuth and elevation plus other details from your city location.

Track the satellite on the map from your city or location and see movement details for azimuth, elevation, latitude, longitude, range, height, and movement on the map or in text.







IsCatalogInMostPopularTable: catalog: 48897, numindb: 18
Update: records affected: 1



GetName: 48897 SPACEBEE-109

Hit Count: updated at: Tue, 19 Oct 2021 09:40:27 GMT